STARLINK-34804, 65026

Orbit data source: Space-Track

STARLINK-34804, 65026 is a payload satellite owned by SpaceX/Seattle (US) in LEO that was launched on Wed, 30 Jul 2025 UTC via an FALCON 9 launch vehicle from the Air Force Eastern Test Range (AFETR). Payload-class satellites include a variety of spacecraft equipped with specific instruments for various scientific and technological missions. These include communications satellites like Starlink; space stations such as the ISS; scientific satellites like the Hubble; Earth observation satellites from companies like Planet Labs, Umbra, and HawkEye 360; GPS; miniature CubeSats for education and research; and military/defense satellites.

Loading next visibility...
Identifier
65026, 2025-161M
Orbit
LEO
Country
Flag of USUS
Related business
Manufacturer
SpaceX/Seattle
Mission
Operational spacecraft
Bus & Motor
STARLINK V2MO, Unknown motor
Mass
575 kg wet, ~530 kg dry
Launch date (UTC)
2025-07-30 (1 month ago)
Launch vehicle
FALCON 9
Launch site
Air Force Eastern Test Range (AFETR)
Object type
Payload
Rocket body
Debris
Shape & HBR
Unknown
Radar Cross Section
Large (>1 m²)

Expand to show TLE details & history
Last TLE update: 12 hours ago

TLE from 12 hours ago
0 STARLINK-34804
1 65026U 25161M   25242.25001157 -.01479711  00000-0 -37736-1 0  9999
2 65026  53.1600 105.6470 0001064  58.5722 107.3260 15.42025643  6084
Epoch: 2025-08-30T06:00Z
TLE epoch observation values (Epoch: 2025-08-30T06:00:00.999Z)
Latitude
11.22513°
Longitude
-151.54699°
Altitude
440.489 km
Speed
7.65 km/s
True Right ascension
18h 28m 34s
True Declination
11° 09' 24"
Sunlit
Object was in full shadow at epoch
Visualization orbit readout
Latitude
Unknown
Longitude
Unknown
Altitude
Unknown
Speed
Unknown
Apparent Right ascension
Unknown
Apparent Declination
Unknown
Sunlit
N/A
Visualization observer readout
Local Sidereal Time
09:32:24
Azimuth
Unknown
Elevation
Unknown
Doppler factor
Unknown
Orbital elements
Apogee altitude
441.115 km
Perigee altitude
439.664 km
Semi-major axis
6,818.526 km
Eccentricity
0.00011
Inclination
53.16°
RAAN
105.647°
Arg. of periapsis
58.5722°
True anomaly
107.33764°
Mean anomaly
107.326°
Eccentric anomaly
107.33182°
Mean motion
3.85485 °/min
Orbital period
93.39 mins
BSTAR
-0.037736
Loading maneuver chart data...
Computing Atmospheric mass density...
Loading historical data...
Loading historical data...
Loading historical data...
Loading historical data...
Loading historical data...
Loading historical data...
Loading historical data...

Documentation

Showing up to 5 results
|